Regional Weather Roundup
Issued by NWS

Home | Current Version | Previous Version | Graphics & Text | Print | Product List | Glossary On
Versions: 1 2 3 4 5 6 7 8 9 10 11 12 13 14 15 16 17 18 19 20 21 22 23 24 25 26 27 28 29 30 31 32 33 34 35 36 37 38 39 40 41 42 43 44 45 46 47 48 49 50
000
ASUS45 KBOU 290507
RWRCO

WEATHER ROUNDUP FOR COLORADO
NATIONAL WEATHER SERVICE DENVER/BOULDER CO
1100 PM MDT FRI AUG 28 2015

NOTE: "FAIR" INDICATES FEW OR NO CLOUDS BELOW 12000 FEET WITH NO
SIGNIFICANT WEATHER AND/OR OBSTRUCTIONS TO VISIBILITY.

COZ001>005-013-030-031-290600-
...NORTHWEST COLORADO...

CITY           SKY/WX    TMP DP  RH WIND       PRES   REMARKS
CRAIG          CLEAR     58  45  62 E5        30.31S
HAYDEN         NOT AVBL
MEEKER         CLEAR     57  44  62 E6        30.32S
MOUNT WERNER   NOT AVBL
STEAMBOAT SPGS CLEAR     56  45  66 CALM      30.37S
WALDEN         CLEAR     46  39  76 SE9       30.46S
$$

COZ006>008-011-290600-
...WEST CENTRAL VALLEYS...

CITY           SKY/WX    TMP DP  RH WIND       PRES   REMARKS
GRAND JUNCTION CLEAR     69  45  41 E3        30.16S
MONTROSE       CLEAR     64  47  53 S7        30.27S
EAGLE          CLEAR     59  43  55 E7        30.38R
RIFLE          CLEAR     66  45  46 SE8       30.25R
DELTA          CLEAR     68  49  51 E9        30.22S HAZE
NUCLA          CLEAR     64  36  34 E10       30.29S
$$

COZ017>023-064>068-290600-
...SOUTHWEST COLORADO...

CITY           SKY/WX    TMP DP  RH WIND       PRES   REMARKS
DURANGO        CLEAR     60  46  59 E3        30.29R
CORTEZ         CLEAR     60  43  53 NE3       30.23R
PAGOSA SPRINGS CLOUDY    64  42  45 CALM      30.39R
TELLURIDE      PTCLDY    55  41  59 SE6       30.51S
WOLF CREEK PAS CLOUDY    46  37  71 E6        30.74S
$$

COZ009-010-012-014-032>034-037-058>063-290600-
...CENTRAL COLORADO...

CITY           SKY/WX    TMP DP  RH WIND       PRES   REMARKS
ASPEN          CLEAR     55  43  63 S7        30.44R
BUENA VISTA    CLOUDY    62  43  49 CALM      30.49S
COPPER MTN     CLEAR     52  34  50 SE8       30.75S
BERTHOUD PASS  FAIR      41  30  65 S9        30.79F
COTTONWOOD PAS PTCLDY    55  41  58 CALM      30.62R
GUNNISON       CLEAR     57  41  54 CALM      30.44R
KREMMLING      CLEAR     52  43  71 CALM      30.44S
LEADVILLE      PTCLDY    48  37  65 CALM      30.60R
MONARCH PASS   PTCLDY    43  36  75 E22       30.82R
SALIDA         PTCLDY    65  44  46 NE6       30.53R
SUNLIGHT       CLEAR     50  37  62 NE6       30.66F
WILKERSON PASS PTCLDY    46  36  66 E7        30.74S
$$

COZ069>075-290600-
...SAN LUIS VALLEY/SANGRE DE CRISTO MOUNTAINS...

CITY           SKY/WX    TMP DP  RH WIND       PRES   REMARKS
ALAMOSA        PTCLDY    62  42  47 SE12      30.39R
LA VETA PASS   PTCLDY    52  39  62 NE13      30.61S
SAGUACHE       NOT AVBL
$$

COZ035-036-038>040-290600-
...NORTHERN COLORADO FRONT RANGE...

CITY           SKY/WX    TMP DP  RH WIND       PRES   REMARKS
DENVER INTL AP PTCLDY    63  38  39 S12       30.28R
DMNS CITY PARK   N/A     65  49  56 SE10      30.28S
AURORA         PTCLDY    64  38  38 SE9       30.31R
FRONT RANGE AP NOT AVBL
ERIE MUNI ARPT PTCLDY    66  47  50 CALM      30.27S
BOULDER MUN AP PTCLDY    68  45  42 N5        30.28R
CENTENNIAL     PTCLDY    64  42  44 S6        30.32R
BROOMFIELD     NOT AVBL
FORT COLLINS   CLEAR     70  43  37 CALM      30.27R
LONGMONT       CLEAR     67  49  53 SW6       30.28S
$$

COZ041-046-047-076>085-087-088-290600-
...PIKES PEAK/PALMER DIVIDE AND SOUTHERN FOOTHILLS...

CITY           SKY/WX    TMP DP  RH WIND       PRES   REMARKS
COLO. SPRINGS  MOCLDY    68  43  40 NW5       30.36R
A. F. ACADEMY  MOCLDY    58  47  67 N9        30.38R
ELLICOTT       PTCLDY     1   1 100 E9        30.33S WCI -14
FALCON         MOCLDY    63  44  49 MISG      30.41S
FORT CARSON    CLOUDY    65  48  55 N5        30.32R
LIMON          CLEAR     55  44  66 W3        30.29R
MONUMENT HILL  PTCLDY    54  41  62 S5        30.41S
TRINIDAD       CLOUDY    68  45  43 W7        30.30R
$$

COZ042>045-048>051-090-091-290600-
...NORTHEAST COLORADO...

CITY           SKY/WX    TMP DP  RH WIND       PRES   REMARKS
GREELEY ARPT   CLEAR     61  48  63 CALM      30.25R
AKRON          CLEAR     68  42  38 NE8       30.23R
BURLINGTON     CLEAR     59  50  72 CALM      30.20R
WRAY           CLEAR     65  54  65 CALM      30.17R
STERLING       CLEAR     61  45  55 CALM      30.17S
HOLYOKE        CLEAR     61  54  77 CALM      30.17R
FORT MORGAN    CLEAR     66  44  44 E5        30.23R
$$

COZ086-089-092>099-290600-
...SOUTHEAST COLORADO...

CITY           SKY/WX    TMP DP  RH WIND       PRES   REMARKS
PUEBLO         PTCLDY    73  47  39 NW3       30.23R
LA JUNTA       CLEAR     68  47  46 N7        30.19S
LAMAR          CLEAR     65  53  65 CALM      30.14R
SPRINGFIELD      N/A     63  49  60 NW6       30.19R
$$




USA.gov is the U.S. government's official web portal to all federal, state and local government web resources and services.